Liberty, KS

10:30 PM CDT on August 30, 2016 (GMT -0500)
Coffeyville Municipal

Weather History for KCFV - December, 2011

Change the Weather History Date:

Thursday, December 29, 2011

  Actual Average Record
Temperature  
Mean Temperature 48 °F -  
Max Temperature 63 °F 43 °F 68 °F (1999)
Min Temperature 33 °F 23 °F 12 °F (2000)
Degree Days  
Heating Degree Days 17    
Moisture  
Dew Point 32 °F    
Average Humidity 59    
Maximum Humidity 89    
Minimum Humidity 29    
Precipitation  
Precipitation 0.00 in - - ()
Sea Level Pressure  
Sea Level Pressure 29.83 in    
Wind  
Wind Speed 8 mph (SSW)    
Max Wind Speed 14 mph    
Max Gust Speed -    
Visibility 10 miles    
Events      
Averages and records for this station are not official NWS values.
T = Trace of Precipitation, MM = Missing Value Source: NWS Daily Summary

Daily Weather History Graph

Daily Weather History Graph

Search for Another Location

Airport or City:

Trip Planner

Search our weather history database for the weather conditions in past years. The results will help you decide how hot, cold, wet, or windy it might be!

Date:

Astronomy

Dec. 29, 2011 Rise Set
Actual Time 7:35 AM CST 5:13 PM CST
Civil Twilight 7:06 AM CST 5:42 PM CST
Nautical Twilight 6:33 AM CST 6:15 PM CST
Astronomical Twilight 6:01 AM CST 6:46 PM CST
Moon 10:36 AM CST (12/29) 10:43 PM CST (12/29)
Length of Visible Light 10h 36m
Length of Day
9h 38m
Waxing Crescent, 27% of the Moon is Illuminated
Dec 29
Waxing Crescent
Jan 1
First Quarter
Jan 9
Full
Jan 16
Last Quarter
Jan 23
New

Hourly Weather History & Observations

Time (CST) Temp. Windchill Dew Point Humidity Pressure Visibility Wind Dir Wind Speed Gust Speed Precip Events Conditions
12:52 AM 36.0 °F 30.3 °F 30.0 °F 79% 29.96 in 10.0 mi South 6.9 mph - N/A   Clear
1:52 AM 36.0 °F 31.1 °F 30.0 °F 79% 29.93 in 10.0 mi South 5.8 mph - N/A   Clear
2:52 AM 35.1 °F 31.0 °F 30.0 °F 82% 29.94 in 10.0 mi South 4.6 mph - N/A   Clear
3:52 AM 35.1 °F 29.3 °F 30.0 °F 82% 29.91 in 10.0 mi South 6.9 mph - N/A   Clear
4:52 AM 35.1 °F 29.3 °F 30.0 °F 82% 29.91 in 10.0 mi SSW 6.9 mph - N/A   Clear
5:52 AM 34.0 °F 28.0 °F 30.0 °F 85% 29.91 in 10.0 mi South 6.9 mph - N/A   Clear
6:52 AM 33.1 °F 25.5 °F 30.0 °F 89% 29.90 in 10.0 mi South 9.2 mph - N/A   Clear
7:52 AM 36.0 °F 28.5 °F 30.9 °F 82% 29.90 in 10.0 mi South 10.4 mph - N/A   Clear
9:52 AM 43.0 °F 38.2 °F 34.0 °F 71% 29.90 in 10.0 mi South 8.1 mph - N/A   Clear
10:52 AM 51.1 °F - 33.1 °F 50% 29.88 in 10.0 mi SW 9.2 mph - N/A   Clear
11:52 AM 52.0 °F - 32.0 °F 47% 29.85 in 10.0 mi SW 9.2 mph - N/A   Clear
12:52 PM 57.9 °F - 33.1 °F 39% 29.80 in 10.0 mi SSW 13.8 mph - N/A   Clear
1:52 PM 61.0 °F - 30.9 °F 32% 29.77 in 10.0 mi WSW 10.4 mph - N/A   Clear
2:52 PM 63.0 °F - 30.0 °F 29% 29.75 in 10.0 mi SW 10.4 mph - N/A   Clear
3:52 PM 62.1 °F - 32.0 °F 32% 29.74 in 10.0 mi SSW 11.5 mph - N/A   Clear
4:52 PM 60.1 °F - 33.1 °F 36% 29.72 in 10.0 mi South 9.2 mph - N/A   Clear
5:52 PM 55.9 °F - 33.1 °F 42% 29.72 in 10.0 mi South 5.8 mph - N/A   Clear
6:52 PM 57.9 °F - 33.1 °F 39% 29.71 in 10.0 mi South 10.4 mph - N/A   Clear
8:52 PM 55.0 °F - 34.0 °F 45% 29.69 in 10.0 mi South 13.8 mph - N/A   Clear
10:52 PM 50.0 °F - 34.0 °F 54% 29.73 in 10.0 mi SSW 9.2 mph - N/A   Clear
11:52 PM 48.0 °F - 34.0 °F 58% 29.71 in 10.0 mi South 11.5 mph - N/A   Clear